Location: Altenhof
(50.2418°N, 10.8789°E)
Time: 01:02:13
(UTC+00:00)

Cosmos 1943 Rocket - Pass Details

Date: 18 February 2020
Orbit: 813 x 842 km, 71.0° (Epoch: 04 April)

Event Time Altitude Azimuth Distance (km) Brightness Sun altitude
Exits shadow 04:12:49 20° 324° (NW) 1,819 3.7 -21.4°
Maximum altitude 04:16:42 69° 245° (WSW) 870 2.0 -20.8°
Drops below altitude 10° 04:22:09 10° 163° (SSE) 2,399 4.7 -20.0°
Sets 04:24:34 0° 161° (SSE) 3,328 5.5 -19.6°
